Location: Newark
(37.8444°N, 127.0614°E)
Time: 10:55:39
(UTC+00:00)

nSIGHT-1 - Visible Passes

Search period start: 21 January 2020 00:00
Search period end: 31 January 2020 00:00
Orbit: 315 x 317 km, 51.6° (Epoch: 21 January)

Date Brightness Start Highest point End Pass type
(mag) Time Alt. Az. Time Alt. Az. Time Alt. Az.
21 Jan ? 10:25:16 10° NNW 10:25:45 14° NNW 10:25:45 14° NNW visible
22 Jan ? 10:39:01 10° NW 10:39:45 17° NW 10:39:45 17° NW visible
23 Jan ? 09:18:45 10° NNW 09:20:58 22° NNE 09:23:00 11° E visible
23 Jan ? 10:53:09 10° WNW 10:53:53 15° W 10:53:53 15° W visible
24 Jan ? 09:32:09 10° NW 09:34:49 54° NE 09:37:21 11° ESE visible
25 Jan ? 09:45:51 10° WNW 09:48:26 43° SW 09:50:59 10° SSE visible
26 Jan ? 10:00:11 10° W 10:01:48 15° SW 10:03:24 10° SSW visible
